Tracking 30106 objects as of 23-Jan-2025
HD Live streaming from Space Station
objects crossing your sky now

SL-6 R/B(2)

Track SL-6 R/B(2) now!


NORAD ID: 7629
Int'l Code: 1975-007D
Perigee: 5,577.3 km
Apogee: 34,750.6 km
Inclination: 68.9 °
Period: 716.9 minutes
Semi major axis: 26534 km
RCS: 7.0447 m2 (large)
Launch date: January 30, 1975
Source: Commonwealth of Independent States (former USSR) (CIS)
Launch site: PLESETSK MISSILE AND SPACE COMPLEX (PKMTR)

Note: This is a ROCKET BODY
Your satellite tracking list
Your tracking list is empty




NASA's NSSDC Master Catalog

Two Line Element Set (TLE):
1  7629U 75007D   25023.36924635 -.00000039  00000-0  00000+0 0  9995
2  7629  68.8919 256.8197 5497146 312.1192 297.0852  2.00851961227792
Source of the keplerian elements: AFSPC